Fort Worth, TX

5:52 PM CDT on June 27, 2017 (GMT -0500)
Fort Worth Meacham International

Weather History for KFTW - April, 2012

Change the Weather History Date:

Tuesday, April 24, 2012

  Actual Average Record
Temperature  
Mean Temperature 70 °F -  
Max Temperature 88 °F 76 °F 91 °F (2002)
Min Temperature 52 °F 54 °F 34 °F (2013)
Cooling Degree Days 5    
Growing Degree Days 20 (Base 50)    
Moisture  
Dew Point 50 °F    
Average Humidity 51    
Maximum Humidity 77    
Minimum Humidity 31    
Precipitation  
Precipitation 0.00 in - - ()
Sea Level Pressure  
Sea Level Pressure 29.93 in    
Wind  
Wind Speed 7 mph (South)    
Max Wind Speed 15 mph    
Max Gust Speed 24 mph    
Visibility 10 miles    
Events      
Averages and records for this station are not official NWS values.
T = Trace of Precipitation, MM = Missing Value Source: NWS Daily Summary

Daily Weather History Graph

Daily Weather History Graph

Search for Another Location

Airport or City:

Trip Planner

Search our weather history database for the weather conditions in past years. The results will help you decide how hot, cold, wet, or windy it might be!

Date:

Astronomy

Apr. 24, 2012 Rise Set
Actual Time 6:48 AM CDT 8:06 PM CDT
Civil Twilight 6:23 AM CDT 8:32 PM CDT
Nautical Twilight 5:52 AM CDT 9:03 PM CDT
Astronomical Twilight 5:20 AM CDT 9:35 PM CDT
Moon 8:53 AM CDT (4/24) 11:19 PM CDT (4/24)
Length of Visible Light 14h 09m
Length of Day
13h 17m
Waxing Crescent, 10% of the Moon is Illuminated
Apr 24
Waxing Crescent
Apr 29
First Quarter
May 5
Full
May 12
Last Quarter
May 20
New

Hourly Weather History & Observations

Time (CDT) Temp. Heat Index Dew Point Humidity Pressure Visibility Wind Dir Wind Speed Gust Speed Precip Events Conditions
12:53 AM 57.0 °F - 46.9 °F 69% 30.04 in 10.0 mi Calm Calm - N/A   Clear
1:53 AM 55.9 °F - 46.0 °F 69% 30.03 in 10.0 mi South 3.5 mph - N/A   Clear
2:53 AM 55.0 °F - 44.1 °F 67% 30.01 in 10.0 mi South 4.6 mph - N/A   Clear
3:53 AM 55.0 °F - 44.1 °F 67% 30.00 in 10.0 mi Calm Calm - N/A   Clear
4:53 AM 55.0 °F - 43.0 °F 64% 30.01 in 10.0 mi South 4.6 mph - N/A   Clear
5:53 AM 54.0 °F - 45.0 °F 72% 30.00 in 10.0 mi SE 4.6 mph - N/A   Clear
6:53 AM 52.0 °F - 45.0 °F 77% 30.01 in 10.0 mi SSE 4.6 mph - N/A   Clear
7:53 AM 55.9 °F - 48.9 °F 77% 30.02 in 9.0 mi SSW 3.5 mph - N/A   Clear
8:53 AM 63.0 °F - 46.9 °F 56% 30.02 in 10.0 mi SSW 9.2 mph - N/A   Clear
9:53 AM 70.0 °F - 48.0 °F 46% 30.00 in 10.0 mi South 9.2 mph - N/A   Clear
10:53 AM 75.0 °F - 50.0 °F 41% 30.00 in 10.0 mi South 11.5 mph 18.4 mph N/A   Clear
11:53 AM 77.0 °F - 51.1 °F 40% 29.98 in 10.0 mi South 12.7 mph 18.4 mph N/A   Clear
12:53 PM 82.0 °F - 52.0 °F 35% 29.96 in 10.0 mi SSW 10.4 mph 17.3 mph N/A   Clear
1:53 PM 84.0 °F - 52.0 °F 33% 29.92 in 10.0 mi South 12.7 mph 20.7 mph N/A   Clear
2:53 PM 86.0 °F - 52.0 °F 31% 29.89 in 10.0 mi South 15.0 mph 24.2 mph N/A   Clear
3:53 PM 88.0 °F 85.9 °F 54.0 °F 31% 29.87 in 10.0 mi South 12.7 mph 18.4 mph N/A   Clear
4:53 PM 87.1 °F 84.9 °F 53.1 °F 31% 29.84 in 10.0 mi SSW 13.8 mph 19.6 mph N/A   Clear
5:53 PM 86.0 °F 84.7 °F 55.9 °F 36% 29.82 in 10.0 mi South 13.8 mph 21.9 mph N/A   Clear
6:53 PM 82.9 °F 82.0 °F 55.0 °F 38% 29.81 in 10.0 mi South 13.8 mph 21.9 mph N/A   Clear
7:53 PM 80.1 °F 80.1 °F 55.0 °F 42% 29.79 in 10.0 mi South 12.7 mph - N/A   Clear
8:53 PM 77.0 °F - 55.9 °F 48% 29.80 in 10.0 mi South 11.5 mph - N/A   Clear
9:53 PM 75.9 °F - 54.0 °F 46% 29.81 in 10.0 mi South 13.8 mph - N/A   Clear
10:53 PM 75.0 °F - 55.0 °F 50% 29.82 in 10.0 mi South 15.0 mph 24.2 mph N/A   Clear
11:53 PM 73.9 °F - 55.9 °F 53% 29.81 in 10.0 mi South 12.7 mph - N/A   Clear